Other Public Products
Issued by NWS Grand Forks, ND

Home | Current Version | Previous Version | Graphics & Text | Print | Product List | Glossary On
Versions: 1 2 3 4 5 6 7 8 9 10 11 12 13 14 15 16 17 18 19 20 21 22 23 24 25 26 27 28 29 30 31 32 33 34 35 36 37 38 39 40 41 42 43 44 45 46 47 48 49 50
000
FPUS83 KFGF 220131
OPUFGF
PRAIRIE TO PINES WEATHER ROUNDUP
NATIONAL WEATHER SERVICE EASTERN NORTH DAKOTA/GRAND FORKS ND
800 PM CDT SAT APR 21 2018

 **SATELLITE DATA USED TO AUGMENT SKY COVER AT AUTOMATED STATIONS**
 *****  WEATHER ACROSS EASTERN NORTH DAKOTA  *****

CITY           SKY/WX    TMP DP  RH WIND       PRES   REMARKS
GRAND FORKS    FAIR      54  45  71 S6        30.23F
GRND FORKS AFB FAIR      55  44  68 SE8       30.23F
GRND FORKS NWS   N/A     55  45  69 SE10      30.21S
BUXTON           N/A     53  48  83 SE8         N/A
DEVILS LAKE    FAIR      55  38  52 S13       30.18F
FARGO          FAIR      57  40  52 SE10      30.25S
WAHPETON ARPT  FAIR      52  41  66 SE8       30.28S
$$

 *****  WEATHER ACROSS CENTRAL AND WESTERN NORTH DAKOTA  *****

CITY           SKY/WX    TMP DP  RH WIND       PRES   REMARKS
JAMESTOWN      FAIR      53  36  52 S9        30.20F
BISMARCK       FAIR      55  36  48 S17G26    30.16R
MINOT          FAIR      59  37  44 SE16G25   30.05S
MINOT AFB      FAIR      58  39  49 S18       30.03F
GARRISON         N/A     51  36  56 S14       30.08S
WILLISTON      FAIR      67  37  33 S17G23    29.94F
DICKINSON      FAIR      55  37  50 S21G29    30.03F
HETTINGER      FAIR      51  36  56 SE17G26   30.10S
$$

 *****  OTHER OBSERVATIONS NORTHEAST NORTH DAKOTA  *****

CITY           SKY/WX    TMP DP  RH WIND       PRES   REMARKS
WALHALLA       FAIR      57  39  51 S9G20     30.18F
LANGDON        FAIR      52  45  76 S13       30.18S
CAVALIER         N/A     57  43  58 S13       30.19F
GRAFTON        FAIR      54  45  71 S10       30.24S
CANDO          FAIR      50  39  66 S14G20    30.16F
FORT TOTTEN      N/A     55  37  50 S12       29.95S
ROLLA          FAIR      54  41  62 S14       30.12S
RUGBY          FAIR      54  39  58 S10       30.11R
 ***** THE ABOVE OBSERVATIONS ARE NON NWS ARE NOT QUALITY
        CONTROLLED AND MAY MIS-REPORT RAIN FOR SNOW...
$$

 *****  OTHER OBSERVATIONS SOUTHEAST NORTH DAKOTA *****

CITY           SKY/WX    TMP DP  RH WIND       PRES   REMARKS
COOPERSTOWN    FAIR      50  43  76 S9        30.23R
VALLEY CITY    FAIR      50  41  71 S9        30.25R
OAKES            N/A     50  36  57 S10       30.25R
GWINNER          N/A     50  39  66 S7        30.25S
SHEYENNE NWR     N/A     56  39  52 S7        29.95S
BUFFALO          N/A     54  35  47 E5          N/A
WYNDMERE       NOT AVBL
 ***** THE ABOVE OBSERVATIONS ARE NON NWS ARE NOT QUALITY
       CONTROLLED AND MAY MIS-REPORT RAIN FOR SNOW...
$$

  *****  WEATHER ACROSS NORTHERN MINNESOTA  *****

CITY           SKY/WX    TMP DP  RH WIND       PRES   REMARKS
FLAG ISLAND    FAIR      45  27  49 S3        30.25R
WARROAD        FAIR      54  45  71 CALM      30.26R
ROSEAU         FAIR      55  45  67 SW5       30.25S
HALLOCK        FAIR      54  45  71 S10       30.23S
THF RVR FALLS  FAIR      54  43  66 W5        30.27S
HALSTAD        NOT AVBL
FOSSTON        FAIR      48  36  61 S7        30.28S
BAUDETTE       FAIR      55  34  45 S8        30.25S
WASKISH        FAIR      48  32  53 CALM      30.27
CROOKSTON      FAIR      54  45  71 S6        30.26S
$$
  *****  WEATHER ACROSS CENTRAL AND WEST MINNESOTA  *****

CITY           SKY/WX    TMP DP  RH WIND       PRES   REMARKS
BEMIDJI        FAIR      53  28  38 S5        30.27S
PARK RAPIDS    FAIR      54  34  46 CALM      30.28S
WADENA         FAIR      50  34  53 SW5       30.30R
DETROIT LAKES  FAIR      52  34  50 CALM      30.30R
MOORHEAD       FAIR      54  43  66 SE8       30.27S
FERGUS FALLS   FAIR      48  39  71 S7        30.27S
ELBOW LAKE     FAIR      46  39  77 S7        30.30F
MORRIS MN      FAIR      48  41  76 S5        30.30S
STAPLES        FAIR      50  28  43 S3        30.31S
WHEATON        FAIR      50  37  62 SE8       30.31R
$$
  *****  WEATHER ELSEWHERE ACROSS MINNESOTA  *****

CITY           SKY/WX    TMP DP  RH WIND       PRES   REMARKS
DULUTH         FAIR      51  21  30 SE5       30.32R
INTRNTL FALLS  FAIR      54  27  35 SW5       30.26S
ELY            FAIR      52  16  24 S5        30.29R
CLOQUET        FAIR      48  10  21 CALM      30.32R
BRAINERD       FAIR      51  28  41 SE5       30.31S
HIBBING        FAIR      50  20  30 CALM      30.29S
ALEXANDRIA     FAIR      53  34  48 S6        30.31S
SAINT CLOUD    FAIR      53  31  42 S5        30.32S
MINNEAPOLIS    FAIR      56  25  30 SW7       30.33S
$$

  *****  WEATHER ACROSS SOUTH DAKOTA  *****

CITY           SKY/WX    TMP DP  RH WIND       PRES   REMARKS
SIOUX FALLS    MOCLDY    46  38  73 E9        30.28S
BROOKINGS      CLOUDY    44  35  70 SE10      30.30R
WATERTOWN      FAIR      48  37  65 SE7       30.27S
HURON          FAIR      49  35  58 SE8       30.27S
SISSETON         N/A     53  42  66 S9        30.27R
ABERDEEN       FAIR      51  36  56 S8        30.26R
MITCHELL       FAIR      45  38  76 E9        30.27F
PIERRE         FAIR      46  38  73 SE10      30.22F
MOBRIDGE       FAIR      51  37  58 S14       30.18S
RAPID CITY     FAIR      48  37  65 S21       30.12F
$$

  *****  SOME WEATHER IN NEARBY STATES *****

CITY           SKY/WX    TMP DP  RH WIND       PRES   REMARKS
GLASGOW MT     MOCLDY    73  33  23 W20       29.84R
GREAT FALLS MT FAIR      58  21  24 W20G29    30.00R
CHEYENNE WY    CLOUDY    38  35  89 S13       30.15S
SCOTTSBLUFF NE FAIR      45  38  76 E9        30.16F
OMAHA NE       CLOUDY    52  35  52 N6        30.24S
DES MOINES IA  CLOUDY    56  24  29 E8        30.27R
DAVENPORT IA   FAIR      52  32  46 E12       30.34S
CHICAGO IL     CLOUDY    48  17  29 E7        30.36S
EAU CLAIRE WI  FAIR      54  30  40 W5        30.33R
LA CROSSE WI   CLOUDY    55  32  41 SE5       30.35R
$$

  *****  SOME NATIONAL WEATHER *****

CITY           SKY/WX    TMP DP  RH WIND       PRES   REMARKS
LA GUARDIA NY  MOCLDY    58  20  22 NW14      30.30R
RALEIGH NC     MOCLDY    57  38  48 E5        30.34R
ATLANTA GA     MOCLDY    66  41  40 SE8       30.24S
NEW ORLEANS LA MOCLDY    72  67  84 SE16      30.03F
OKLAHOMA CITY  DRIZZLE   48  47  96 N10       30.06R FOG
ALBUQUERQUE NM FAIR      67  26  21 W14       30.08R
SALT LAKE CITY FAIR      68  22  17 W7        30.13S
LOS ANGELES CA PTSUNNY   64  52  64 W13       29.96F
BOISE ID       FAIR      68  32  26 N9        30.10F
SEATTLE WA     PTSUNNY   56  38  50 W6        30.40S
$$

*** WEATHER ACROSS MANITOBA...SASKATCHEWAN AND ONTARIO ***
                ***ONTARIO***

CITY           SKY/WX    TMP DP  RH WIND       PRES   REMARKS
GERALDTON      CLEAR     50  19  29 S10       30.30R
THUNDER BAY    CLEAR     37  27  65 NE6       30.33R
SIOUX LOOKOUT  PTCLDY    46  25  42 W2        30.26S
TORONTO        PTCLDY    50  21  32 NW7       30.39R
BIG TROUT LK   CLEAR     45  30  57 SW3       30.17S
PICKLE LAKE    PTCLDY    52  25  35 SW7       30.24R
DRYDEN         CLEAR     55  23  28 SW5       30.26S
KENORA         PTCLDY    54  27  35 S7        30.24F
$$
                *** MANITOBA***

CITY           SKY/WX    TMP DP  RH WIND       PRES   REMARKS
BRANDON        CLOUDY    57  39  51 S17G24    30.05F
DAUPHIN        CLEAR     59  41  51 S10G18    29.98F
ISLAND LAKE    MOCLDY    57  27  30 S5        30.12S
PILOT MOUND      N/A     54  39  58 S20G28      N/A
THE PAS        CLOUDY    48  36  61 SE13      29.87F
THOMPSON       CLOUDY    54  28  37 SE3       30.00F
WINNIPEG       MOCLDY    59  41  51 S12G18    30.17
LYNN LAKE      CLOUDY    50  36  57 E12G17    29.90F
CHURCHILL      PTCLDY    36  30  80 N15       30.11R
GILLAM         PTCLDY    50  30  46 S2        30.05S
$$
                ***SASKATCHEWAN***

CITY           SKY/WX    TMP DP  RH WIND       PRES   REMARKS
ESTEVAN        MOCLDY    61  39  44 S16G24    29.91F
KINDERSLEY     LGT RAIN  48  39  71 SW26G41   29.67F
LLOYDMINSTER   LGT RAIN  41  41 100 W3        29.61R
PRINCE ALBERT  LGT RAIN  43  39  87 SE3       29.72F
REGINA         MOCLDY    63  43  48 S18       29.79F
YORKTON        PTCLDY    48  41  76 SE15G22   29.87F



USA.gov is the U.S. government's official web portal to all federal, state and local government web resources and services.